SCP
-0 0 0 0 0 0 0 0 0 0 0 0 0 0 0 0 0 0 0 0 0 0 0 0 0 0 0 0 0 0 1 0 0 1 0 0 0 0 0 0 0 0 0
-0 0 0 0 0 0 0 0 0 0 0 0 0 0 0 0 0 0 0 0 0 0 0 0 0 0 0 0 1 1 1 0 0 1 1 0 0 0 0 0 0 0 0
0 0 0 0 0 0 0 0 0 0 0 0 0 0 0 0 0 0 0 0 0 0 0 0 0 0 0 0 1 1 1 0 0 1 1 1 0 0 0 0 0 0 0
0 0 0 0 0 0 0 0 0 0 0 0 0 0 0 0 0 0 0 0 0 0 0 0 0 0 0 1 1 1 1 1 0 0 1 1 1 0 0 0 0 0 0
0 0 0 0 0 0 0 0 0 0 0 0 0 0 0 0 0 0 0 0 0 0 0 0 0 0 0 1 1 1 1 1 0 0 1 1 1 0 0 0 0 0 0
-0 0 0 0 0 0 0 0 0 0 0 0 0 0 0 0 0 0 0 0 0 0 0 0 0 0 0 1 1 1 1 1 1 0 0 0 1 1 1 0 0 0 0
-0 -0 0 0 0 0 0 0 0 0 0 0 0 0 0 0 0 0 0 0 0 0 0 0 0 0 0 1 1 1 1 1 1 0 0 0 0 1 1 0 0 0 0
0 0 0 0 0 0 0 0 0 0 0 0 0 0 0 0 0 0 0 0 0 0 0 0 0 0 0 1 1 1 1 1 1 0 0 0 0 1 1 1 1 0 1
0 0 0 0 0 0 0 0 0 0 0 0 0 0 0 0 0 0 0 0 0 0 0 0 1 1 0 1 1 1 1 0 0 0 0 0 0 1 1 0 1 0 1
0 0 0 0 0 0 0 0 0 0 0 0 0 0 0 0 0 1 0 0 0 0 0 0 1 1 0 1 1 1 1 0 0 0 0 0 1 1 1 1 1 1 0
0 0 0 0 0 0 0 0 0 0 0 0 0 0 0 0 1 0 0 0 0 0 0 0 0 1 1 1 1 1 0 0 0 0 0 0 1 2 1 1 1 1 1
0 0 0 0 0 0 0 0 0 0 0 0 0 0 0 0 0 0 0 0 0 0 0 1 0 0 1 1 0 0 0 0 0 0 0 0 1 2 1 1 1 1 1
0 0 0 0 -0 -0 -0 -0 -0 0 0 0 0 0 0 0 0 0 1 0 0 0 1 0 0 0 0 1 0 0 0 0 0 0 0 0 1 1 1 1 1 1 1
0 0 -0 -0 -0 -0 -0 -0 -0 -0 -0 0 0 0 0 0 0 0 0 0 0 0 0 0 0 0 0 0 0 0 0 0 0 0 0 0 1 1 1 1 1 1 1
0 0 -0 -0 -0 -0 -0 -0 -0 -0 -0 -0 0 0 0 0 0 0 0 0 0 0 0 0 0 0 0 0 0 0 0 0 0 0 0 0 1 1 1 1 1 1 0
0 -0 -0 -0 -0 -0 -0 0 0 0 -0 -0 -0 0 0 0 0 0 0 0 0 0 0 0 0 0 0 0 0 0 0 0 0 0 0 0 0 1 1 1 1 1 1
-0 -0 -0 -0 -0 -0 -0 -0 0 0 0 0 0 -0 -0 0 0 0 0 0 0 1 0 0 0 0 0 0 0 0 0 0 0 0 0 0 0 0 1 1 1 1 1
0 -0 -0 -0 0 0 0 0 0 0 0 0 0 0 -0 0 0 0 0 0 0 1 1 0 0 0 0 0 0 0 0 0 0 0 0 0 0 0 0 0 0 1 0
0 -0 -0 0 0 0 0 0 0 0 0 0 0 0 0 0 0 0 0 -0 -0 0 2 1 0 0 0 0 0 0 0 0 0 0 0 0 0 0 0 0 0 0 0
0 0 0 0 0 0 0 0 0 0 0 0 0 0 0 0 0 0 0 0 -0 0 0 1 0 0 0 0 0 0 0 0 0 0 0 0 0 0 0 0 0 0 0
0 0 0 0 0 0 0 0 0 0 0 0 0 0 0 0 0 0 0 0 -0 -0 0 0 0 0 0 0 0 0 0 0 0 0 0 0 0 0 0 0 0 0 0
0 0 0 0 0 0 0 0 0 0 0 0 0 0 0 0 0 0 0 0 -0 -0 -0 0 0 0 1 0 0 0 0 0 0 0 0 0 0 0 0 0 0 0 0
0 0 0 0 0 0 0 0 0 0 0 0 0 0 0 0 0 0 0 0 -0 -0 -0 -0 0 0 0 0 0 0 0 0 0 0 0 0 0 0 0 0 0 0 0
0 0 0 0 0 0 0 0 0 0 0 0 0 0 0 0 -0 -0 0 0 -0 -0 -0 -0 -0 0 0 0 0 0 0 0 0 0 0 0 0 0 0 0 0 0 0
0 0 0 0 0 0 0 0 0 0 0 0 0 0 0 0 0 0 0 0 0 -0 -0 -0 -0 -0 0 0 0 0 0 0 0 0 0 0 0 0 0 0 0 0 0
0 0 0 0 0 0 0 0 0 0 0 0 0 0 0 0 -0 0 0 0 0 -0 -0 -0 -0 -0 0 0 1 0 0 0 0 0 0 0 0 0 0 0 0 0 0
Wind_Speed_500mb
34 39 38 35 24 19 19 19 17 15 14 15 15 16 20 20 20 23 26 27 27 26 24 22 21 22 23 27 31 34 34 32 25 26 22 19 17 18 24 27 30 31 32
34 30 33 29 27 18 19 16 19 19 21 21 20 19 20 23 26 29 28 30 35 33 31 28 26 25 25 27 33 36 38 38 33 29 28 25 20 22 24 25 30 31 33
29 31 28 24 21 18 16 16 19 22 22 24 24 24 24 27 28 29 29 31 32 36 35 33 30 29 29 32 35 39 43 42 37 34 33 29 27 26 27 23 25 30 33
29 30 35 30 22 17 12 16 18 23 24 27 29 29 30 31 31 30 30 32 32 34 34 33 33 32 34 33 37 42 46 47 44 40 39 35 33 30 27 24 27 32 37
28 26 27 29 29 25 16 17 20 23 29 33 35 36 38 36 35 37 35 35 34 35 34 31 32 33 38 36 40 45 47 49 48 44 42 41 36 34 31 28 31 36 38
19 21 26 27 24 23 23 23 24 29 32 36 40 43 42 43 42 41 42 40 36 33 32 31 30 32 39 40 44 46 49 52 52 47 48 47 44 39 35 33 34 36 37
25 26 24 20 16 16 20 23 27 32 35 40 42 45 48 49 49 47 47 44 39 35 37 35 39 35 38 44 45 48 51 56 57 51 54 52 49 42 40 39 38 38 39
26 26 27 29 32 24 15 19 28 36 39 43 46 48 50 52 51 51 51 49 46 42 41 41 40 41 40 45 47 50 52 56 57 57 59 55 50 47 48 46 43 44 45
32 33 37 37 31 32 37 34 26 30 35 44 47 51 53 55 54 55 56 53 52 50 47 45 42 43 47 45 51 50 54 62 62 65 68 60 54 52 48 50 49 52 49
37 41 45 46 46 48 42 36 38 35 34 40 45 48 54 59 59 60 58 58 57 56 54 49 46 46 46 50 55 54 59 65 66 68 74 69 64 59 52 53 54 54 54
37 43 48 51 54 55 54 52 49 41 37 39 39 43 51 61 68 69 63 61 61 60 59 56 53 49 50 53 58 61 64 72 70 72 77 74 70 64 62 58 59 60 59
46 49 52 56 57 57 57 57 58 56 53 44 48 52 49 56 62 63 64 63 67 65 67 65 62 58 55 57 62 63 69 77 75 73 75 73 67 66 67 63 66 68 68
45 51 61 65 69 72 72 70 63 60 59 58 50 49 63 63 61 68 69 69 71 72 73 70 66 67 64 62 68 74 75 73 78 78 78 72 65 66 64 69 73 75 75
52 57 64 75 80 81 80 77 77 77 70 58 59 57 52 64 73 72 73 77 78 78 80 75 69 67 68 66 71 76 77 77 86 81 80 73 64 65 69 74 80 81 83
58 60 68 75 80 80 79 80 81 81 77 73 60 61 63 59 64 76 82 79 81 83 87 82 75 69 68 69 73 73 79 82 86 87 86 77 70 68 74 80 88 90 90
56 66 73 74 74 76 81 76 75 76 81 77 79 65 63 64 60 63 78 85 82 87 90 88 81 78 76 72 76 75 78 80 85 91 90 85 78 68 74 85 94 101 91
58 72 80 76 72 71 71 80 78 70 75 78 80 83 72 71 73 72 70 64 88 89 91 90 85 81 75 71 73 72 75 79 90 94 103 94 88 79 80 96 104 107 97
59 69 71 74 73 73 76 79 77 81 80 88 80 83 84 73 78 77 79 80 52 83 91 98 98 89 84 81 79 77 85 80 91 90 92 85 82 82 84 124 123 114 101
62 65 64 68 71 74 80 83 87 79 79 92 101 91 80 87 83 81 76 85 84 51 88 95 113 101 99 89 90 77 90 81 58 80 83 81 80 80 90 73 107 108 89
59 57 59 67 70 72 80 84 82 81 84 96 106 103 89 94 82 86 85 88 86 88 44 94 102 129 111 99 96 89 88 76 49 57 48 69 66 62 69 71 78 87 80
61 59 59 66 71 72 81 85 87 88 97 107 118 94 90 91 90 92 88 89 86 86 104 59 75 120 115 103 102 96 84 79 68 59 60 58 69 57 77 74 56 52 79
62 59 65 67 73 81 87 84 84 98 101 101 104 90 92 98 91 85 87 89 95 90 92 115 75 87 124 118 101 79 52 69 81 84 90 86 66 79 80 63 76 83 81
61 57 68 69 75 85 85 97 102 103 111 107 100 86 75 84 79 88 91 85 88 85 74 98 96 56 62 116 110 83 46 36 80 86 87 91 107 66 79 66 88 84 71
56 58 68 70 78 86 91 101 105 108 111 113 105 105 110 89 82 81 79 82 91 92 72 75 103 98 78 100 111 108 90 79 89 53 90 102 101 90 67 87 87 79 67
56 63 72 75 81 90 95 103 110 114 111 111 102 105 99 96 83 77 86 88 90 92 92 58 84 105 82 99 116 123 87 85 101 96 69 95 101 95 85 81 81 68 62
59 70 82 79 90 95 102 109 111 103 113 106 107 94 86 78 79 74 65 76 86 86 85 62 71 84 87 68 119 119 116 103 106 104 90 92 96 101 97 91 84 80 73
Wind_Direction_500mb
355 350 350 349 339 299 279 265 257 264 267 269 269 270 279 281 278 276 272 271 265 263 260 254 250 256 251 226 219 217 218 217 218 210 197 194 187 179 178 170 169 166 160
342 346 343 349 350 327 289 275 263 266 274 276 272 265 267 278 285 285 277 270 268 265 263 258 251 245 246 233 224 221 219 217 219 211 198 189 190 172 173 169 166 161 160
354 341 334 342 346 341 320 282 274 279 278 273 278 276 276 281 280 284 290 283 268 263 264 263 254 245 237 232 228 223 221 219 219 207 203 193 188 181 177 171 173 167 167
4 346 345 334 333 331 310 295 291 283 280 277 276 271 275 277 281 279 288 292 284 265 261 262 260 248 234 232 229 228 222 220 217 205 206 195 193 188 185 185 183 184 175
16 4 352 350 335 322 298 282 282 283 287 286 277 272 274 276 276 279 282 289 287 272 266 262 260 252 237 230 232 230 225 217 217 206 206 194 196 193 192 187 185 178 176
12 6 350 347 343 322 307 290 287 286 284 287 282 278 274 276 278 279 282 285 284 272 262 265 269 262 243 230 237 231 224 217 212 207 202 197 203 203 200 196 190 186 184
7 9 7 9 4 353 327 302 281 282 285 285 283 279 276 276 276 276 278 279 276 265 261 256 258 260 256 234 240 235 224 218 216 204 195 200 197 202 205 201 192 188 183
8 4 357 354 353 344 324 311 300 286 277 281 282 282 280 277 275 274 274 273 269 264 259 257 254 257 254 238 237 239 226 219 209 202 194 201 201 206 210 204 195 193 187
36 33 31 24 7 346 340 332 305 298 293 281 276 279 280 279 276 273 273 270 268 263 259 259 257 254 251 243 236 237 227 217 212 202 201 202 204 208 209 207 199 194 190
29 30 27 24 19 21 14 353 330 309 298 297 284 282 278 278 276 273 269 268 269 264 261 257 255 254 254 247 234 235 228 218 212 207 206 208 209 211 212 208 201 195 190
25 23 20 17 14 11 8 3 0 343 313 292 291 290 288 285 272 270 265 266 267 266 261 259 257 256 254 248 234 234 227 219 216 213 212 215 214 214 212 206 204 195 190
18 15 13 7 4 359 357 354 352 349 344 332 291 289 290 286 285 275 268 262 264 265 264 262 259 257 251 247 234 232 229 223 216 215 215 216 216 217 208 203 204 197 190
18 9 5 360 355 351 347 344 339 338 336 333 327 302 285 286 287 280 273 267 259 261 262 261 259 254 250 243 235 227 226 225 218 215 216 215 211 203 209 200 200 196 189
13 8 1 356 351 349 346 343 339 336 332 323 316 312 311 286 282 283 280 271 262 258 259 261 257 253 249 242 233 229 223 224 220 216 213 215 209 205 206 200 197 193 187
7 5 0 354 349 347 343 341 340 337 334 328 319 307 308 305 291 281 279 278 266 255 253 257 254 249 245 240 232 225 223 226 225 214 214 213 210 209 202 200 195 190 187
1 359 357 352 347 341 340 343 342 337 335 327 322 315 303 300 295 287 281 277 272 259 252 255 250 248 242 235 230 224 223 225 225 214 214 216 211 203 203 202 195 192 189
357 354 352 346 344 346 346 339 338 338 331 326 321 315 311 303 300 288 289 285 271 265 256 249 246 242 240 231 231 226 226 226 228 225 222 218 215 206 207 206 201 194 184
356 355 347 343 344 345 340 334 328 324 323 325 318 314 311 307 301 301 289 281 288 269 261 247 243 233 231 225 221 219 224 218 218 218 214 207 207 208 213 207 194 190 185
353 352 346 345 345 341 336 331 326 321 315 317 322 311 308 306 305 306 302 289 276 288 256 249 240 230 225 221 219 219 215 198 194 203 215 210 213 213 205 181 178 180 179
353 351 346 345 341 338 335 333 331 325 317 313 313 311 306 304 306 304 303 299 297 276 318 245 240 223 221 216 209 204 199 202 203 200 188 205 210 210 204 210 192 161 171
353 353 348 342 339 342 335 337 332 326 314 308 308 308 304 304 300 303 301 301 304 284 268 306 254 231 213 213 201 204 213 210 206 203 215 218 219 206 200 192 181 182 174
350 351 345 342 339 342 340 332 322 316 313 314 311 301 297 299 297 293 297 297 301 306 279 274 297 252 209 205 194 193 186 196 205 208 205 216 206 211 208 192 186 172 169
347 344 343 340 339 339 334 330 329 322 319 317 312 305 300 289 289 293 292 290 290 299 285 273 270 302 226 198 199 190 184 190 180 201 210 212 210 196 191 191 180 175 169
341 341 342 342 333 331 333 332 331 327 319 319 312 308 294 289 293 286 289 286 284 289 283 284 266 277 302 211 198 202 199 200 176 170 195 200 199 206 192 182 168 172 170
341 340 345 332 329 332 332 335 332 328 323 318 311 309 301 293 285 287 283 282 279 285 295 272 267 275 293 224 199 195 192 196 186 175 174 195 204 210 202 186 184 182 183
341 345 336 330 329 332 332 333 332 324 327 318 315 309 307 305 290 284 285 280 275 283 291 281 266 267 256 250 205 192 191 184 182 180 174 176 183 194 194 193 191 194 188
Wind_Speed_850mb
34 39 38 35 24 19 19 19 17 15 14 15 15 16 20 20 20 23 26 27 27 26 24 22 21 22 23 27 31 34 34 32 25 26 22 19 17 18 24 27 30 31 32
34 30 33 29 27 18 19 16 19 19 21 21 20 19 20 23 26 29 28 30 35 33 31 28 26 25 25 27 33 36 38 38 33 29 28 25 20 22 24 25 30 31 33
29 31 28 24 21 18 16 16 19 22 22 24 24 24 24 27 28 29 29 31 32 36 35 33 30 29 29 32 35 39 43 42 37 34 33 29 27 26 27 23 25 30 33
29 30 35 30 22 17 12 16 18 23 24 27 29 29 30 31 31 30 30 32 32 34 34 33 33 32 34 33 37 42 46 47 44 40 39 35 33 30 27 24 27 32 37
28 26 27 29 29 25 16 17 20 23 29 33 35 36 38 36 35 37 35 35 34 35 34 31 32 33 38 36 40 45 47 49 48 44 42 41 36 34 31 28 31 36 38
19 21 26 27 24 23 23 23 24 29 32 36 40 43 42 43 42 41 42 40 36 33 32 31 30 32 39 40 44 46 49 52 52 47 48 47 44 39 35 33 34 36 37
25 26 24 20 16 16 20 23 27 32 35 40 42 45 48 49 49 47 47 44 39 35 37 35 39 35 38 44 45 48 51 56 57 51 54 52 49 42 40 39 38 38 39
26 26 27 29 32 24 15 19 28 36 39 43 46 48 50 52 51 51 51 49 46 42 41 41 40 41 40 45 47 50 52 56 57 57 59 55 50 47 48 46 43 44 45
32 33 37 37 31 32 37 34 26 30 35 44 47 51 53 55 54 55 56 53 52 50 47 45 42 43 47 45 51 50 54 62 62 65 68 60 54 52 48 50 49 52 49
37 41 45 46 46 48 42 36 38 35 34 40 45 48 54 59 59 60 58 58 57 56 54 49 46 46 46 50 55 54 59 65 66 68 74 69 64 59 52 53 54 54 54
37 43 48 51 54 55 54 52 49 41 37 39 39 43 51 61 68 69 63 61 61 60 59 56 53 49 50 53 58 61 64 72 70 72 77 74 70 64 62 58 59 60 59
46 49 52 56 57 57 57 57 58 56 53 44 48 52 49 56 62 63 64 63 67 65 67 65 62 58 55 57 62 63 69 77 75 73 75 73 67 66 67 63 66 68 68
45 51 61 65 69 72 72 70 63 60 59 58 50 49 63 63 61 68 69 69 71 72 73 70 66 67 64 62 68 74 75 73 78 78 78 72 65 66 64 69 73 75 75
52 57 64 75 80 81 80 77 77 77 70 58 59 57 52 64 73 72 73 77 78 78 80 75 69 67 68 66 71 76 77 77 86 81 80 73 64 65 69 74 80 81 83
58 60 68 75 80 80 79 80 81 81 77 73 60 61 63 59 64 76 82 79 81 83 87 82 75 69 68 69 73 73 79 82 86 87 86 77 70 68 74 80 88 90 90
56 66 73 74 74 76 81 76 75 76 81 77 79 65 63 64 60 63 78 85 82 87 90 88 81 78 76 72 76 75 78 80 85 91 90 85 78 68 74 85 94 101 91
58 72 80 76 72 71 71 80 78 70 75 78 80 83 72 71 73 72 70 64 88 89 91 90 85 81 75 71 73 72 75 79 90 94 103 94 88 79 80 96 104 107 97
59 69 71 74 73 73 76 79 77 81 80 88 80 83 84 73 78 77 79 80 52 83 91 98 98 89 84 81 79 77 85 80 91 90 92 85 82 82 84 124 123 114 101
62 65 64 68 71 74 80 83 87 79 79 92 101 91 80 87 83 81 76 85 84 51 88 95 113 101 99 89 90 77 90 81 58 80 83 81 80 80 90 73 107 108 89
59 57 59 67 70 72 80 84 82 81 84 96 106 103 89 94 82 86 85 88 86 88 44 94 102 129 111 99 96 89 88 76 49 57 48 69 66 62 69 71 78 87 80
61 59 59 66 71 72 81 85 87 88 97 107 118 94 90 91 90 92 88 89 86 86 104 59 75 120 115 103 102 96 84 79 68 59 60 58 69 57 77 74 56 52 79
62 59 65 67 73 81 87 84 84 98 101 101 104 90 92 98 91 85 87 89 95 90 92 115 75 87 124 118 101 79 52 69 81 84 90 86 66 79 80 63 76 83 81
61 57 68 69 75 85 85 97 102 103 111 107 100 86 75 84 79 88 91 85 88 85 74 98 96 56 62 116 110 83 46 36 80 86 87 91 107 66 79 66 88 84 71
56 58 68 70 78 86 91 101 105 108 111 113 105 105 110 89 82 81 79 82 91 92 72 75 103 98 78 100 111 108 90 79 89 53 90 102 101 90 67 87 87 79 67
56 63 72 75 81 90 95 103 110 114 111 111 102 105 99 96 83 77 86 88 90 92 92 58 84 105 82 99 116 123 87 85 101 96 69 95 101 95 85 81 81 68 62
59 70 82 79 90 95 102 109 111 103 113 106 107 94 86 78 79 74 65 76 86 86 85 62 71 84 87 68 119 119 116 103 106 104 90 92 96 101 97 91 84 80 73
Wind_Direction_850mb
355 350 350 349 339 299 279 265 257 264 267 269 269 270 279 281 278 276 272 271 265 263 260 254 250 256 251 226 219 217 218 217 218 210 197 194 187 179 178 170 169 166 160
342 346 343 349 350 327 289 275 263 266 274 276 272 265 267 278 285 285 277 270 268 265 263 258 251 245 246 233 224 221 219 217 219 211 198 189 190 172 173 169 166 161 160
354 341 334 342 346 341 320 282 274 279 278 273 278 276 276 281 280 284 290 283 268 263 264 263 254 245 237 232 228 223 221 219 219 207 203 193 188 181 177 171 173 167 167
4 346 345 334 333 331 310 295 291 283 280 277 276 271 275 277 281 279 288 292 284 265 261 262 260 248 234 232 229 228 222 220 217 205 206 195 193 188 185 185 183 184 175
16 4 352 350 335 322 298 282 282 283 287 286 277 272 274 276 276 279 282 289 287 272 266 262 260 252 237 230 232 230 225 217 217 206 206 194 196 193 192 187 185 178 176
12 6 350 347 343 322 307 290 287 286 284 287 282 278 274 276 278 279 282 285 284 272 262 265 269 262 243 230 237 231 224 217 212 207 202 197 203 203 200 196 190 186 184
7 9 7 9 4 353 327 302 281 282 285 285 283 279 276 276 276 276 278 279 276 265 261 256 258 260 256 234 240 235 224 218 216 204 195 200 197 202 205 201 192 188 183
8 4 357 354 353 344 324 311 300 286 277 281 282 282 280 277 275 274 274 273 269 264 259 257 254 257 254 238 237 239 226 219 209 202 194 201 201 206 210 204 195 193 187
36 33 31 24 7 346 340 332 305 298 293 281 276 279 280 279 276 273 273 270 268 263 259 259 257 254 251 243 236 237 227 217 212 202 201 202 204 208 209 207 199 194 190
29 30 27 24 19 21 14 353 330 309 298 297 284 282 278 278 276 273 269 268 269 264 261 257 255 254 254 247 234 235 228 218 212 207 206 208 209 211 212 208 201 195 190
25 23 20 17 14 11 8 3 0 343 313 292 291 290 288 285 272 270 265 266 267 266 261 259 257 256 254 248 234 234 227 219 216 213 212 215 214 214 212 206 204 195 190
18 15 13 7 4 359 357 354 352 349 344 332 291 289 290 286 285 275 268 262 264 265 264 262 259 257 251 247 234 232 229 223 216 215 215 216 216 217 208 203 204 197 190
18 9 5 360 355 351 347 344 339 338 336 333 327 302 285 286 287 280 273 267 259 261 262 261 259 254 250 243 235 227 226 225 218 215 216 215 211 203 209 200 200 196 189
13 8 1 356 351 349 346 343 339 336 332 323 316 312 311 286 282 283 280 271 262 258 259 261 257 253 249 242 233 229 223 224 220 216 213 215 209 205 206 200 197 193 187
7 5 0 354 349 347 343 341 340 337 334 328 319 307 308 305 291 281 279 278 266 255 253 257 254 249 245 240 232 225 223 226 225 214 214 213 210 209 202 200 195 190 187
1 359 357 352 347 341 340 343 342 337 335 327 322 315 303 300 295 287 281 277 272 259 252 255 250 248 242 235 230 224 223 225 225 214 214 216 211 203 203 202 195 192 189
357 354 352 346 344 346 346 339 338 338 331 326 321 315 311 303 300 288 289 285 271 265 256 249 246 242 240 231 231 226 226 226 228 225 222 218 215 206 207 206 201 194 184
356 355 347 343 344 345 340 334 328 324 323 325 318 314 311 307 301 301 289 281 288 269 261 247 243 233 231 225 221 219 224 218 218 218 214 207 207 208 213 207 194 190 185
353 352 346 345 345 341 336 331 326 321 315 317 322 311 308 306 305 306 302 289 276 288 256 249 240 230 225 221 219 219 215 198 194 203 215 210 213 213 205 181 178 180 179
353 351 346 345 341 338 335 333 331 325 317 313 313 311 306 304 306 304 303 299 297 276 318 245 240 223 221 216 209 204 199 202 203 200 188 205 210 210 204 210 192 161 171
353 353 348 342 339 342 335 337 332 326 314 308 308 308 304 304 300 303 301 301 304 284 268 306 254 231 213 213 201 204 213 210 206 203 215 218 219 206 200 192 181 182 174
350 351 345 342 339 342 340 332 322 316 313 314 311 301 297 299 297 293 297 297 301 306 279 274 297 252 209 205 194 193 186 196 205 208 205 216 206 211 208 192 186 172 169
347 344 343 340 339 339 334 330 329 322 319 317 312 305 300 289 289 293 292 290 290 299 285 273 270 302 226 198 199 190 184 190 180 201 210 212 210 196 191 191 180 175 169
341 341 342 342 333 331 333 332 331 327 319 319 312 308 294 289 293 286 289 286 284 289 283 284 266 277 302 211 198 202 199 200 176 170 195 200 199 206 192 182 168 172 170
341 340 345 332 329 332 332 335 332 328 323 318 311 309 301 293 285 287 283 282 279 285 295 272 267 275 293 224 199 195 192 196 186 175 174 195 204 210 202 186 184 182 183
341 345 336 330 329 332 332 333 332 324 327 318 315 309 307 305 290 284 285 280 275 283 291 281 266 267 256 250 205 192 191 184 182 180 174 176 183 194 194 193 191 194 188